This is the latest recevied weather packets stored in our database for station/object OE6JUE. If no packets are shown the sender has not sent any weather packets the latest 10 day(s).
| Time | Temp. | Humidity | Pressure | Rain* | Wind** | Luminosity | Snow |
|---|---|---|---|---|---|---|---|
| 1788140619 | 15.56° C | 84% | 1017.6 hPa | 0 mm | - | - | - |
| 1788140319 | 15.56° C | 84% | 1017.6 hPa | 0 mm | - | - | - |
| 1788140019 | 15.56° C | 83% | 1017.6 hPa | 0 mm | - | - | - |
| 1788139719 | 16.11° C | 83% | 1017.6 hPa | 0 mm | - | - | - |
| 1788139419 | 16.11° C | 84% | 1017.5 hPa | 0 mm | - | - | - |
| 1788139119 | 16.11° C | 84% | 1017.7 hPa | 0 mm | - | - | - |
| 1788138818 | 16.11° C | 84% | 1017.5 hPa | 0 mm | - | - | - |
| 1788138519 | 16.11° C | 83% | 1017.6 hPa | 0 mm | - | - | - |
| 1788138219 | 16.11° C | 83% | 1017.7 hPa | 0 mm | - | - | - |
| 1788137919 | 16.11° C | 83% | 1017.6 hPa | 0 mm | - | - | - |
| 1788137619 | 16.11° C | 82% | 1017.7 hPa | 0 mm | - | - | - |
| 1788137318 | 16.11° C | 82% | 1017.7 hPa | 0 mm | - | - | - |
| 1788137019 | 16.67° C | 82% | 1017.7 hPa | 0 mm | - | - | - |
| 1788136719 | 16.67° C | 82% | 1017.7 hPa | 0 mm | - | - | - |
| 1788136419 | 17.22° C | 83% | 1017.8 hPa | 0 mm | - | - | - |
| 1788136119 | 16.67° C | 83% | 1018 hPa | 0 mm | - | - | - |
| 1788135819 | 16.67° C | 82% | 1017.9 hPa | 0 mm | - | - | - |
| 1788135519 | 16.67° C | 82% | 1017.9 hPa | 0 mm | - | - | - |
| 1788135219 | 16.67° C | 83% | 1017.9 hPa | 0 mm | - | - | - |
| 1788134918 | 16.67° C | 83% | 1017.8 hPa | 0 mm | - | - | - |
| 1788134619 | 16.67° C | 83% | 1017.8 hPa | 0 mm | - | - | - |
| 1788134319 | 16.67° C | 83% | 1017.8 hPa | 0 mm | - | - | - |
| 1788134019 | 16.67° C | 84% | 1017.9 hPa | 0 mm | - | - | - |
| 1788133718 | 16.11° C | 83% | 1017.8 hPa | 0 mm | - | - | - |
| 1788133418 | 16.11° C | 83% | 1017.8 hPa | 0 mm | - | - | - |
* Rain latest hour (hover to see other rain measurements)
** Current wind speed in m/s (hover to see current wind gust speed)